This demonstration page uses our WeatherBlox Daily Observations layout. Learn more.

Left ArrowRight Arrow

38.80484, -77.04692

Hourly Observations for May 20, 2021

Temp ( °F °C ) Dew Point ( °F °C ) Humidity (%) Winds ( mph kmh ) Pressure ( in mb ) Visibility ( mi km ) Precip ( " mm )
12:52 am 00:52 Clear 66 18.9 59 15 78 78 S 7 11 30.34 1027 10 16 N/A
1:52 am 01:52 Mostly Clear 66 18.9 60 15.6 81 81 S 7 11 30.34 1028 10 16 N/A
2:52 am 02:52 Mostly Clear 66 18.9 59 15 78 78 S 5 7 30.35 1028 10 16 N/A
3:52 am 03:52 Mostly Clear 65 18.3 59 15 81 81 S 3 6 30.35 1028 10 16 N/A
4:52 am 04:52 Clear 64 17.8 58 14.4 81 81 N N/A 30.36 1028 10 16 N/A
5:52 am 05:52 Partly Cloudy 63 17.2 53 11.7 70 70 SW 3 6 30.37 1028 10 16 N/A
6:52 am 06:52 Mostly Cloudy 64 17.8 55 12.8 73 73 N N/A 30.39 1029 10 16 N/A
7:52 am 07:52 Mostly Cloudy 67 19.4 60 15.6 79 79 SSE 3 6 30.41 1030 10 16 N/A
8:52 am 08:52 Mostly Cloudy 73 22.8 58 14.4 59 59 VRB 3 6 30.41 1030 10 16 N/A
9:52 am 09:52 Cloudy 80 26.7 54 12.2 41 41 N 8 13 30.41 1030 10 16 N/A
10:52 am 10:52 Cloudy 84 28.9 54 12.2 36 36 NW 5 7 30.41 1030 10 16 N/A
11:52 am 11:52 Cloudy 85 29.4 53 11.7 33 33 E 3 6 30.40 1030 10 16 N/A
12:52 pm 12:52 Mostly Sunny 88 31.1 50 10 27 27 WNW 3 6 30.40 1029 10 16 N/A
1:52 pm 13:52 Mostly Sunny 90 32.2 49 9.4 24 24 VRB 3 6 30.39 1029 10 16 N/A
2:52 pm 14:52 Partly Cloudy 89 31.7 56 13.3 33 33 E 9 15 30.37 1029 10 16 N/A
3:52 pm 15:52 Partly Cloudy 88 31.1 58 14.4 36 36 ESE 13 20 30.37 1028 10 16 N/A
4:52 pm 16:52 Mostly Sunny 87 30.6 58 14.4 37 37 ESE 10 17 30.37 1028 10 16 N/A
5:52 pm 17:52 Mostly Sunny 83 28.3 60 15.6 46 46 ESE 16 26 30.38 1029 10 16 N/A
6:52 pm 18:52 Mostly Sunny 77 25 51 10.6 40 40 SE 12 19 30.41 1030 10 16 N/A
7:52 pm 19:52 Partly Cloudy 73 22.8 43 6.1 34 34 SE 12 19 30.42 1030 10 16 N/A
8:52 pm 20:52 Mostly Clear 70 21.1 42 5.6 37 37 SSE 8 13 30.45 1031 10 16 N/A
9:52 pm 21:52 Mostly Clear 68 20 46 7.8 45 45 SSE 9 15 30.47 1032 10 16 N/A
10:52 pm 22:52 Mostly Cloudy 67 19.4 46 7.8 47 47 S 10 17 30.49 1032 10 16 N/A
11:52 pm 23:52 Mostly Cloudy 65 18.3 46 7.8 51 51 SE 6 9 30.50 1033 10 16 N/A

Powered by AerisWeather